Location: Vassar Physics Lab
(41.6843°N, 73.8954°W)
Time: 10:09:15
(UTC-04:00)

Daily predictions for brighter satellites

Satellite Brightness Start Highest point End
(mag) Time Altitude Azimuth Time Altitude Azimuth Time Altitude Azimuth
CSL-04 Debris 4.5 18:21:53 10° S 18:27:22 78° WSW 18:32:53 10° NNW
CSL-04 Rocket 4.2 18:23:40 10° S 18:28:59 67° WSW 18:34:17 10° NNW
Cosmos 2322 Rocket 3.5 18:24:50 10° NW 18:30:11 46° WSW 18:35:31 10° S
COSMOS 2428 3.4 18:25:51 10° N 18:31:01 34° ENE 18:36:09 10° ESE
Cosmos 2218 Rocket 4.0 18:27:13 10° S 18:33:22 89° WNW 18:39:33 10° N
SPOT 3 Rocket 4.0 18:28:41 10° SE 18:33:28 39° ENE 18:38:17 10° N
Cosmos 2333 Rocket 3.5 18:29:23 10° N 18:33:42 21° NE 18:38:00 10° E
Cosmos 1833 4.2 18:29:39 10° SSW 18:35:21 86° ESE 18:41:01 10° NNE
Cosmos 1452 Rocket 3.5 18:30:53 10° NNW 18:36:07 64° ENE 18:41:19 10° SSE
Cosmos 2219 4.0 18:31:48 10° SSE 18:36:43 30° ESE 18:41:37 10° NE
Aureole 2 Rocket 4.2 18:36:20 10° NNE 18:39:07 18° ENE 18:41:58 10° ESE
FENGYUN 3A 4.4 18:35:06 10° SE 18:39:49 32° ENE 18:44:34 10° N
CORIOLIS 4.3 18:34:31 10° SSE 18:39:55 84° WSW 18:45:22 10° NNW
MTI 3.7 18:37:32 10° NNE 18:40:44 68° ESE 18:43:54 10° S
Cosmos 1727 Rocket 4.0 18:35:07 10° N 18:41:31 76° E 18:47:49 10° SSE
CZ-4 R/B 1.8 18:40:10 10° S 18:44:21 73° WSW 18:48:30 10° NNW
Abrixas 2.9 18:42:48 10° SSW 18:44:42 26° SE 18:46:07 14° E
Delta 2 Rocket 4.4 18:42:14 10° WSW 18:45:51 33° S 18:49:08 10° ESE
Iridium 4 Rocket 4.3 18:40:56 10° SSE 18:46:00 36° E 18:51:19 10° NNE
Cosmos 2098 Rocket 4.2 18:43:58 10° SSE 18:48:05 32° E 18:53:09 10° NNE
Cosmos 2221 2.9 18:44:06 10° SSE 18:48:09 41° E 18:52:14 10° NNE
GP-B 3.1 18:43:52 10° N 18:48:19 84° E 18:52:46 10° S
SKYMED 2 3.7 18:44:30 10° NNE 18:48:46 54° E 18:53:01 10° S
MONITOR-E 4.3 18:46:42 10° SSE 18:49:40 48° ENE 18:52:40 10° N
Cosmos 1743 Rocket 3.9 18:45:38 10° NNW 18:50:00 70° W 18:54:24 10° S
CZ-4 R/B 4.4 18:45:57 10° SSE 18:50:05 81° ENE 18:54:15 10° N
Aureole 2 4.2 18:47:47 10° NNW 18:50:54 69° ENE 18:54:26 10° SSE
Cosmos 44 3.1 18:49:15 10° SSW 18:53:30 53° ESE 18:57:43 10° NE
Cosmos 921 Rocket 3.0 18:49:13 10° NNW 18:53:41 79° ENE 18:58:02 10° SSE
ERS-2 3.0 18:53:10 10° S 18:56:47 54° W 19:00:26 10° NNW
Cosmos 2322 3.8 18:52:44 10° NNW 18:58:29 84° WSW 19:04:11 10° SSE
EO 1 Del DPAF 3.2 18:55:01 10° NNE 18:58:52 89° E 19:02:43 10° SSW
Cosmos 1842 Rocket 4.1 18:54:42 10° SSW 18:59:08 64° W 19:03:34 10° N
Abrixas rocket 3.8 18:58:22 10° NW 19:01:07 24° N 19:03:10 14° NE
SL-8 R/B 4.3 19:00:26 10° W 19:05:09 53° NNW 19:09:09 14° NE
Cosmos 1726 2.6 19:02:44 10° SSE 19:06:08 36° E 19:09:33 10° NNE
Cosmos 2219 Rocket 2.6 19:02:46 10° N 19:08:05 41° ENE 19:13:22 10° SE
Cosmos 1315 Rocket 3.0 19:04:51 10° NNW 19:08:56 81° W 19:13:03 10° S
Cosmos 1500 Rocket 4.4 19:06:15 10° NNW 19:10:30 53° W 19:14:42 10° S
Cosmos 1048 Rocket 3.9 19:07:19 10° S 19:12:24 71° ESE 19:17:31 10° NNE
Cosmos 158 Rocket 3.9 19:08:29 10° SSW 19:13:32 88° ESE 19:18:47 10° NNE
APEX 2.6 19:12:38 10° SSW 19:15:47 76° WNW 19:18:22 12° NNE
NOAA 12 4.0 19:10:36 10° SSE 19:15:52 73° ENE 19:21:12 10° N
DELTA 2 R/B (1) 4.4 19:11:02 10° W 19:16:20 46° SSW 19:21:07 13° SE
METEOR-M 4.4 19:12:29 10° S 19:17:48 73° WSW 19:23:10 10° NNW
Cosmos 1420 Rocket 4.3 19:13:15 10° NNW 19:18:34 74° WSW 19:23:49 10° S
NOSS 0 Rocket 4.2 19:17:26 10° NNW 19:23:20 44° ENE 19:27:35 18° ESE
FREGAT/IRIS 3.6 19:24:03 29° NE 19:24:03 29° NE 19:26:06 10° N
CZ-4C R/B 2.0 19:18:34 10° SSW 19:23:42 75° ESE 19:29:35 10° NE
Cosmos 44 Rocket 3.3 19:21:09 10° SW 19:25:51 77° NW 19:30:34 10° NNE
SJ-6B 3.4 19:30:48 32° ENE 19:30:48 32° ENE 19:33:48 10° N
Lacrosse 5 rocket 4.0 19:31:31 10° N 19:31:53 10° N 19:32:15 10° N
Resurs 01 Rocket 3.5 19:33:45 15° NE 19:33:45 15° NE 19:35:01 10° NNE
Thor Agena Rocket 3.5 19:29:18 10° NNE 19:34:20 60° ESE 19:39:18 10° S
Cosmos 2333 4.3 19:28:37 10° NNW 19:34:22 82° WSW 19:40:07 10° SSE
Sich 1 3.0 19:31:24 10° N 19:35:44 57° E 19:40:04 10° SSE
COSMO-SKYMED 1 3.8 19:32:39 10° N 19:36:47 44° WNW 19:40:54 10° SW
PSLV R/B 4.4 19:34:17 10° SW 19:36:41 27° SSE 19:36:41 27° SSE
Cosmos 1535 Rocket 4.3 19:36:06 10° S 19:42:13 84° E 19:48:21 10° N
In-Cosmos 22 Rocket 4.3 19:36:56 10° N 19:42:35 54° ENE 19:48:16 10° SSE
Cosmos 2237 Rocket 2.5 19:38:24 10° NNW 19:43:50 44° ENE 19:45:24 36° E
Atlas Centaur 2 4.2 19:43:22 10° SW 19:45:35 13° SSW 19:48:00 10° SSE
H-2A R/B 2.6 19:43:54 29° SSE 19:45:46 69° ENE 19:49:41 10° N
USA 267 3.9 19:45:00 30° ESE 19:46:08 32° SE 19:51:49 10° S
Cosmos 1331 Rocket 4.1 19:42:17 10° N 19:47:25 52° ENE 19:48:57 39° ESE
Gbstr 26 Del rocket 3.6 19:42:24 10° NW 19:47:32 85° SW 19:50:40 30° SE
Cosmos 1805 Rocket 3.9 19:45:08 10° NNW 19:49:29 64° W 19:53:51 10° S
Cosmos 2227 Rocket 2.4 19:45:47 10° S 19:51:06 44° ESE 19:52:07 40° ENE
SL-16 R/B 3.5 19:51:00 10° N 19:54:45 24° NE 19:54:45 24° NE
Cosmos 1666 Rocket 3.5 19:54:25 10° N 19:58:45 81° W 20:02:43 12° S
ALOS 3.6 19:57:46 10° SSW 20:02:10 41° W 20:06:35 10° NNW
Cosmos 1300 3.1 19:59:44 10° SSW 20:03:31 63° W 20:07:19 10° N
Cosmos 1633 Rocket 3.0 19:59:56 10° N 20:04:22 86° W 20:06:13 35° S
Cosmos 1980 3.5 20:02:25 10° NNW 20:08:05 72° ENE 20:09:17 54° SE
Meteor 2-3 Rocket 4.0 20:02:54 10° N 20:07:50 46° NE 20:07:50 46° NE
Cosmos 1934 Rocket 4.3 20:06:13 10° SSW 20:12:32 69° W 20:18:55 10° N
Aureole 2 Rocket 4.2 20:10:37 10° NW 20:14:16 37° WSW 20:16:42 19° SSW
COSMOS 2428 4.2 20:10:08 10° NW 20:15:14 35° WSW 20:20:20 10° S
Cosmos 1302 Rocket 4.5 20:10:48 10° N 20:14:50 45° NNE 20:14:50 45° NNE
Cosmos 2333 Rocket 2.5 20:12:46 10° NNW 20:18:29 66° WSW 20:21:36 27° S
Cosmos 2219 4.4 20:15:17 10° SW 20:20:41 41° WNW 20:26:05 10° N
USA 234 4.3 20:20:48 29° NE 20:21:54 30° NNE 20:27:26 10° NW
BREEZE-M DEB (TANK) 3.3 20:11:05 10° WNW 20:25:41 85° NNE 20:26:20 71° ESE
Cosmos 2297 Rocket 2.5 20:22:50 10° SSW 20:27:03 51° S 20:27:03 51° S
Cosmos 494 Rocket 4.2 20:24:19 10° SSW 20:29:23 68° WNW 20:30:46 47° N
USA 32 4.2 20:31:57 10° N 20:36:35 67° NW 20:36:35 67° NW
Cosmos 2082 4.2 20:32:11 10° SSW 20:36:17 49° SSW 20:36:17 49° SSW
BREEZE-M DEB (TANK) 3.6 20:35:11 10° WNW 20:41:01 48° NW 20:41:01 48° NW
Cosmos 2219 Rocket 3.9 20:47:06 10° NW 20:51:48 28° WSW 20:55:32 14° SSW
Resurs 01 Rocket 4.2 21:11:19 16° NNW 21:11:19 16° NNW 21:12:15 10° NNW
CZ-4C R/B 4.2 21:08:37 10° W 21:12:57 23° NW 21:15:06 19° N
Cosmos 2237 Rocket 4.0 21:22:55 10° NW 21:27:17 27° W 21:27:17 27° W
USA 267 4.4 21:32:23 36° WSW 21:32:23 36° WSW 21:35:58 10° WSW
Cosmos 2227 Rocket 4.1 21:30:29 10° WSW 21:34:04 26° WNW 21:34:04 26° WNW
SL-16 R/B 4.2 21:34:32 10° NNW 21:36:39 23° NW 21:36:39 23° NW
CZ-3A R/B 4.3 21:45:55 10° NW 21:56:32 57° WNW 21:56:32 57° WNW
